(92328) = 2001 QA284 = 2000 GW60

Discovered at Socorro on 2000-04-05 by LINEAR.

Orbit

Orbit type: Main Belt

Note: WebGL enabled browser required.

epoch2023-09-13.0
epoch JD2460200.5
perihelion date2020-11-13.03942
perihelion JD2459166.53942
argument of perihelion (°)337.92019
ascending node (°)25.54235
inclination (°)3.30914
eccentricity0.1672769
perihelion distance (AU)1.8078309
Tisserand w.r.t. Jupiter3.7
ΔV w.r.t. Earth (km/sec)8.3
semimajor axis (AU)2.1709868
mean anomaly (°)318.58259
mean daily motion (°/day)0.30811870
aphelion distance (AU)2.534
period (years)3.2
P-vector [x]0.99790426
P-vector [y]0.06456197
P-vector [z]0.00434148
Q-vector [x]-0.05972967
Q-vector [y]0.89325109
Q-vector [z]0.44557251
absolute magnitude16.8
phase slope0.15
uncertainty0
referenceMPEC 2023-X102
observations used908
oppositions16
arc length (days)10663
first opposition used1993
last opposition used2022
residual rms (arc-secs)0.69
perturbers coarse indicatorM-v
perturbers precise indicator003Ek
first observation date used1993-01-26.0
last observation date used2022-04-07.0
computer nameMPCLINUX
JD of orbit computation2456937.191185
perihelion JD uncertainty (days)6.8101E-05
argument of perihelion uncertainty (°)7.0364E-05
ascending node uncertainty (°)6.8250E-05
inclination uncertainty (°)5.4694E-06
eccentricity uncertainty 4.6885E-08
perihelion distance uncertainty (AU)1.0370E-07
Minimum Orbit Intersection Distances (in AU)
for orbit epoch: 2460200.5, reference: E2023-XA2
Mercury1.44206
Venus1.08218
Earth0.80536
Mars0.40282
Jupiter2.90885
Saturn6.80897
Uranus15.9267
Neptune27.9482

Observations

920 total observations over interval: 1993 01 26.35432 – 2022 04 07.278904
These data are available for download (format description).

Date (UT) J2000 RA J2000 Dec Magn Location Ref
1993 01 26.35432 09 21 49.59 +21 07 27.8 19.9 V 691 – Steward Observatory, Kitt Peak-Spacewatch MPS 175870
1993 01 26.38924 09 21 47.10 +21 07 39.0   691 – Steward Observatory, Kitt Peak-Spacewatch MPS 175870
1993 01 26.42328 09 21 44.72 +21 07 49.0   691 – Steward Observatory, Kitt Peak-Spacewatch MPS 175870
2000 04 05.36169 13 19 07.11 -07 39 22.2 19.8   704 – Lincoln Laboratory ETS, New Mexico MPS 12774
2000 04 05.37616 13 19 06.21 -07 39 17.1 19.8   704 – Lincoln Laboratory ETS, New Mexico MPS 12774
2000 04 05.39063 13 19 05.29 -07 39 12.1 19.7   704 – Lincoln Laboratory ETS, New Mexico MPS 12774
2000 04 06.33697 13 18 05.90 -07 34 32.0 19.1   704 – Lincoln Laboratory ETS, New Mexico MPS 12774
2000 04 06.35102 13 18 05.00 -07 34 27.4 19.5   704 – Lincoln Laboratory ETS, New Mexico MPS 12774
2000 04 06.36521 13 18 04.09 -07 34 23.5 19.8   704 – Lincoln Laboratory ETS, New Mexico MPS 12774
2000 04 06.37926 13 18 03.14 -07 34 18.2 19.7   704 – Lincoln Laboratory ETS, New Mexico MPS 12774
2000 04 06.39331 13 18 02.21 -07 34 15.0 19.7   704 – Lincoln Laboratory ETS, New Mexico MPS 12774
2000 04 13.19661 13 10 51.38 -07 00 12.2 20.1 V 691 – Steward Observatory, Kitt Peak-Spacewatch MPS 12774
2000 04 13.21756 13 10 50.05 -07 00 06.6 20.6 V 691 – Steward Observatory, Kitt Peak-Spacewatch MPS 12774
2000 04 13.23866 13 10 48.63 -06 59 59.8 20.1 V 691 – Steward Observatory, Kitt Peak-Spacewatch MPS 12774
2000 04 29.17894 12 55 16.52 -05 46 56.5 20.1   704 – Lincoln Laboratory ETS, New Mexico MPS 35644
2000 04 29.19101 12 55 15.92 -05 46 54.2 19.7   704 – Lincoln Laboratory ETS, New Mexico MPS 35644
2000 04 29.20310 12 55 15.25 -05 46 51.7 19.7   704 – Lincoln Laboratory ETS, New Mexico MPS 35644
2001 08 05.43330 01 30 56.01 +06 29 35.2 19.7   644 – Palomar Mountain/NEAT MPS 35644
2001 08 05.44399 01 30 56.65 +06 29 40.0 19.5   644 – Palomar Mountain/NEAT MPS 35644
2001 08 05.45481 01 30 57.33 +06 29 44.6 19.6   644 – Palomar Mountain/NEAT MPS 35644
2001 08 16.39045 01 41 05.41 +07 38 10.3 19.4   704 – Lincoln Laboratory ETS, New Mexico MPS 35644
2001 08 16.40241 01 41 05.88 +07 38 14.0 19.4   704 – Lincoln Laboratory ETS, New Mexico MPS 35644
2001 08 16.41434 01 41 06.42 +07 38 18.5 19.3   704 – Lincoln Laboratory ETS, New Mexico MPS 35644
2001 08 18.36381 01 42 33.71 +07 48 43.7 19.4 R 699 – Lowell Observatory-LONEOS MPS 34941
2001 08 18.38256 01 42 34.45 +07 48 50.0   699 – Lowell Observatory-LONEOS MPS 34941
2001 08 18.40134 01 42 35.26 +07 48 55.1   699 – Lowell Observatory-LONEOS MPS 34941
2001 08 18.42015 01 42 35.95 +07 49 01.4   699 – Lowell Observatory-LONEOS MPS 34941
2001 08 24.41251 01 46 17.89 +08 17 26.2 18.7   704 – Lincoln Laboratory ETS, New Mexico MPS 34941
2001 08 24.42544 01 46 18.25 +08 17 29.7 19.5   704 – Lincoln Laboratory ETS, New Mexico MPS 34941
2001 08 24.43849 01 46 18.61 +08 17 33.6 19.0   704 – Lincoln Laboratory ETS, New Mexico MPS 34941
2001 08 24.45144 01 46 19.01 +08 17 36.3 19.5   704 – Lincoln Laboratory ETS, New Mexico MPS 34941
2001 09 16.34346 01 48 32.13 +09 13 29.5 18.9   644 – Palomar Mountain/NEAT MPS 36179
2001 09 16.36481 01 48 31.68 +09 13 29.8 18.8   644 – Palomar Mountain/NEAT MPS 36179
2001 09 16.38624 01 48 31.16 +09 13 30.6 18.8   644 – Palomar Mountain/NEAT MPS 36179
2001 09 17.32195 01 48 10.76 +09 13 56.0 18.4 R 699 – Lowell Observatory-LONEOS MPS 36179
2001 09 17.34941 01 48 10.05 +09 13 56.9   699 – Lowell Observatory-LONEOS MPS 36179
2001 09 17.35619 01 48 09.88 +09 13 56.8 18.7   704 – Lincoln Laboratory ETS, New Mexico MPS 36179
2001 09 17.37027 01 48 09.47 +09 13 57.7 19.3   704 – Lincoln Laboratory ETS, New Mexico MPS 36179
2001 09 17.37693 01 48 09.33 +09 13 57.6   699 – Lowell Observatory-LONEOS MPS 36179
2001 09 17.38411 01 48 09.08 +09 13 57.7 19.0   704 – Lincoln Laboratory ETS, New Mexico MPS 36179
2001 09 17.40454 01 48 08.63 +09 13 58.1   699 – Lowell Observatory-LONEOS MPS 36179
2001 09 19.33007 01 47 19.99 +09 14 23.0 18.3   704 – Lincoln Laboratory ETS, New Mexico MPS 36179
2001 09 19.34421 01 47 19.52 +09 14 23.1 18.1   704 – Lincoln Laboratory ETS, New Mexico MPS 36179
2001 09 19.35835 01 47 19.07 +09 14 22.8 18.2   704 – Lincoln Laboratory ETS, New Mexico MPS 36179
2001 09 19.37248 01 47 18.66 +09 14 22.6 18.0   704 – Lincoln Laboratory ETS, New Mexico MPS 36179
2001 09 19.38663 01 47 18.18 +09 14 22.6 18.1   704 – Lincoln Laboratory ETS, New Mexico MPS 36179
2001 09 20.34272 01 46 50.95 +09 14 22.7 18.4 V 333 – Desert Eagle Observatory MPS 36179
2001 09 20.35744 01 46 50.44 +09 14 22.4 18.2 V 333 – Desert Eagle Observatory MPS 36179
2001 09 20.37236 01 46 49.99 +09 14 22.6 18.2 V 333 – Desert Eagle Observatory MPS 36179
2001 09 21.34060 01 46 20.19 +09 14 12.8 18.1 V 333 – Desert Eagle Observatory MPS 36179
2001 09 21.35538 01 46 19.62 +09 14 13.2 18.2 V 333 – Desert Eagle Observatory MPS 36179
2001 09 21.37025 01 46 19.14 +09 14 12.4 18.2 V 333 – Desert Eagle Observatory MPS 36179
2001 09 21.40645 01 46 17.78 +09 14 10.9 17.4   704 – Lincoln Laboratory ETS, New Mexico MPS 36179
2001 09 21.42069 01 46 17.27 +09 14 10.8 17.7   704 – Lincoln Laboratory ETS, New Mexico MPS 36179
2001 09 21.43494 01 46 16.76 +09 14 10.7 18.1   704 – Lincoln Laboratory ETS, New Mexico MPS 36179
2001 09 21.44920 01 46 16.28 +09 14 10.2 18.1   704 – Lincoln Laboratory ETS, New Mexico MPS 36179
2001 09 21.46346 01 46 15.78 +09 14 10.3 18.5   704 – Lincoln Laboratory ETS, New Mexico MPS 36179
2001 09 26.33523 01 43 15.43 +09 11 11.6 19.0   704 – Lincoln Laboratory ETS, New Mexico MPS 48752
2001 09 26.34993 01 43 14.69 +09 11 11.0 19.2   704 – Lincoln Laboratory ETS, New Mexico MPS 48752
2001 09 26.36451 01 43 14.03 +09 11 09.6 19.0   704 – Lincoln Laboratory ETS, New Mexico MPS 48752
2001 09 26.37909 01 43 13.36 +09 11 09.2 19.0   704 – Lincoln Laboratory ETS, New Mexico MPS 48752
2001 09 26.39369 01 43 12.68 +09 11 07.5 18.8   704 – Lincoln Laboratory ETS, New Mexico MPS 48752
2001 10 07.35555 01 33 58.94 +08 53 40.4 17.6   644 – Palomar Mountain/NEAT MPS 37555
2001 10 07.37575 01 33 57.70 +08 53 37.7 17.7   644 – Palomar Mountain/NEAT MPS 37555
2001 10 07.39693 01 33 56.41 +08 53 35.1 17.7   644 – Palomar Mountain/NEAT MPS 37555
2001 10 12.26442 01 29 08.79 +08 42 33.0 17.6 R 699 – Lowell Observatory-LONEOS MPS 37555
2001 10 12.28778 01 29 07.27 +08 42 29.9   699 – Lowell Observatory-LONEOS MPS 37555
2001 10 12.31121 01 29 05.76 +08 42 27.4   699 – Lowell Observatory-LONEOS MPS 37555
2001 10 12.33472 01 29 04.26 +08 42 23.0   699 – Lowell Observatory-LONEOS MPS 37555
2001 10 13.24846 01 28 09.08 +08 40 11.6 17.9   704 – Lincoln Laboratory ETS, New Mexico MPS 37555
2001 10 13.26410 01 28 08.07 +08 40 09.3 17.8   704 – Lincoln Laboratory ETS, New Mexico MPS 37555
2001 10 13.27985 01 28 07.03 +08 40 07.1 18.0   704 – Lincoln Laboratory ETS, New Mexico MPS 37555
2001 10 13.29551 01 28 06.05 +08 40 04.7 18.2   704 – Lincoln Laboratory ETS, New Mexico MPS 37555
2001 10 13.31141 01 28 05.01 +08 40 02.2 18.0   704 – Lincoln Laboratory ETS, New Mexico MPS 37555
2001 10 14.19286 01 27 11.82 +08 37 53.6 17.6 R 699 – Lowell Observatory-LONEOS MPS 37555
2001 10 14.19760 01 27 11.50 +08 37 53.0   699 – Lowell Observatory-LONEOS MPS 37555
2001 10 14.20231 01 27 11.20 +08 37 52.7   699 – Lowell Observatory-LONEOS MPS 37555
2001 10 14.20699 01 27 10.91 +08 37 51.9   699 – Lowell Observatory-LONEOS MPS 37555
2001 10 14.32898 01 27 03.03 +08 37 34.7 18.0 V 291 – LPL/Spacewatch II MPS 37555
2001 10 14.34988 01 27 01.70 +08 37 31.6 18.0 V 291 – LPL/Spacewatch II MPS 37555
2001 10 14.37049 01 27 00.32 +08 37 28.5 18.0 V 291 – LPL/Spacewatch II MPS 37555
2001 10 17.24782 01 24 05.54 +08 30 25.6 17.7   704 – Lincoln Laboratory ETS, New Mexico MPS 39022
2001 10 17.26383 01 24 04.52 +08 30 23.4 18.4   704 – Lincoln Laboratory ETS, New Mexico MPS 39022
2001 10 17.27981 01 24 03.48 +08 30 21.2 18.5   704 – Lincoln Laboratory ETS, New Mexico MPS 39022
2001 10 17.29579 01 24 02.48 +08 30 19.3 18.3   704 – Lincoln Laboratory ETS, New Mexico MPS 39022
2001 10 17.31213 01 24 01.44 +08 30 16.9 18.4   704 – Lincoln Laboratory ETS, New Mexico MPS 39022
2001 10 18.29127 01 23 02.30 +08 27 53.2 17.8   644 – Palomar Mountain/NEAT MPS 39022
